Regional Weather Roundup
Issued by NWS

Home | Current Version | Previous Version | Text Only | Print | Product List | Glossary Off
Versions: 1 2 3 4 5 6 7 8 9 10 11 12 13 14 15 16 17 18 19 20 21 22 23 24 25 26 27 28 29 30 31 32 33 34 35 36 37 38 39 40 41 42 43 44 45 46 47 48 49 50

000
ASUS45 KSLC 271810
RWRUT

UTAH REGIONAL WEATHER ROUNDUP
NATIONAL WEATHER SERVICE SALT LAKE CITY UT
1200 PM MDT FRI MAY 27 2016

UTZ001>011-023>025-271900-

NORTHERN UTAH

CITY           SKY/WX    TMP DP  RH WIND       PRES   REMARKS
BRIGHAM CITY     N/A     64  42  45 SW5       29.96F
HILL AFB       SUNNY     63  43  47 SW6       29.97F
LOGAN          MOSUNNY   64  39  39 W6        29.95F
OGDEN          MOSUNNY   65  43  44 SW8       29.96F
PROVO AIRPORT  PTSUNNY   59  39  47 VRB6      29.98F
SALT LAKE CITY MOSUNNY   68  38  33 W6        29.95F
VERNAL         MOSUNNY   64  36  35 W5        29.95F
WENDOVER       PTSUNNY   66  36  32 SE8       29.96S
HEBER CITY     MOSUNNY   57  36  44 CALM      29.98F
WEST JORDAN    MOSUNNY   61  41  48 E7        29.98F

$$

UTZ012>022-026-027-271900-

SOUTHERN/CENTRAL UTAH

CITY           SKY/WX    TMP DP  RH WIND       PRES   REMARKS
BLANDING       MOSUNNY   64  31  28 S8        30.04F
BRYCE CANYON   PTSUNNY   55  29  36 NE13G22   30.08S
CEDAR CITY     MOSUNNY   63  34  33 VRB3      30.01F
DELTA          PTSUNNY   63  34  34 E8        29.98F
HANKSVILLE     SUNNY     70  32  24 CALM      29.95F
MILFORD        PTSUNNY   66  30  26 S7        29.99F
MOAB/CYNLANDS  SUNNY     69  35  28 VRB5      29.91F
PRICE          SUNNY     66  28  24 W10G20    29.95F
ST GEORGE      PTCLDY    73  37  27 CALM      29.94F
KANAB          MOSUNNY   72  36  26 S12G17    30.01F

$$

REGIONAL REPORTS     COLORADO/ARIZONA

CITY           SKY/WX    TMP DP  RH WIND       PRES   REMARKS
CRAIG, CO      CLOUDY    53  38  56 W15       29.98S
GRAND JUNCTION SUNNY     66  37  34 W8        29.91F
RIFLE          LGT RAIN  63  34  33 N7        29.93F
MONTROSE       SUNNY     61  35  37 VRB3      29.97F
CORTEZ         MOSUNNY   65  33  30 W18G24    29.95F
PAGE, AZ       SUNNY     71  32  23 VRB6      29.94F
GRAND CANYON   MOSUNNY   63  27  25 SW8G20    30.06F
KINGMAN        SUNNY     78  29  16 SW10      29.94F
FLAGSTAFF      PTSUNNY   59  27  29 VRB5      30.08S

$$

REGIONAL REPORTS    NEVADA/IDAHO/WYOMING

CITY           SKY/WX    TMP DP  RH WIND       PRES   REMARKS
LAS VEGAS, NV  MOSUNNY   82  32  16 W3        29.85F
ELY            CLOUDY    59  29  31 CALM      30.05S
ELKO           SUNNY     63  39  41 SW14      29.99F
POCATELLO, ID  MOSUNNY   65  41  41 W20G30    29.96F
BURLEY         SUNNY     61  38  42 W17G25    29.96S
EVANSTON, WY   LGT RAIN  47  33  58 N6        30.04S
ROCK SPRINGS   LGT RAIN  52  38  58 SW10      29.99F
KEMMERER         N/A     55  30  38 NW12      30.02F

$$



USA.gov is the U.S. government's official web portal to all federal, state and local government web resources and services.